Time,TemperatureF,DewpointF,PressureIn,WindDirection,WindDirectionDegrees,WindSpeedMPH,WindSpeedGustMPH,Humidity,HourlyPrecipIn,Conditions,Clouds,dailyrainin,SoftwareType,DateUTC
2013-04-18 07:53:00,51.8,49.4,29.73,NNE,23,0.0,0.0,92,0.00,,,0.00,WUHU216HW,2013-04-18 11:53:00,
2013-04-18 07:54:00,51.8,49.4,29.73,NNE,23,0.0,0.0,92,0.00,,,0.00,WUHU216HW,2013-04-18 11:54:00,
2013-04-18 07:59:00,51.8,49.4,29.72,NE,45,0.0,0.0,92,0.00,,,0.00,WUHU216HW,2013-04-18 11:59:00,
2013-04-18 08:04:00,51.9,49.6,29.71,North,0,0.0,0.0,92,0.00,,,0.00,WUHU216HW,2013-04-18 12:04:00,
2013-04-18 08:09:00,51.9,49.6,29.71,NE,45,0.0,0.0,92,0.00,,,0.00,WUHU216HW,2013-04-18 12:09:00,
2013-04-18 08:14:00,52.1,49.8,29.71,ESE,113,0.0,0.0,92,0.00,,,0.00,WUHU216HW,2013-04-18 12:14:00,
2013-04-18 08:20:00,52.3,50.0,29.71,ESE,113,0.0,0.0,92,0.00,,,0.00,WUHU216HW,2013-04-18 12:20:00,
2013-04-18 08:25:00,52.5,50.2,29.69,ENE,68,0.0,0.0,92,0.00,,,0.00,WUHU216HW,2013-04-18 12:25:00,
2013-04-18 08:30:00,52.7,50.3,29.69,ESE,113,0.0,0.0,92,0.00,,,0.00,WUHU216HW,2013-04-18 12:30:00,
2013-04-18 08:35:00,53.0,50.7,29.69,NE,45,0.0,0.0,92,0.00,,,0.00,WUHU216HW,2013-04-18 12:35:00,
2013-04-18 08:40:00,53.2,50.9,29.70,NNW,338,0.8,1.3,92,0.00,,,0.00,WUHU216HW,2013-04-18 12:40:00,
2013-04-18 08:45:00,53.4,51.1,29.70,NNE,23,0.0,3.1,92,0.00,,,0.00,WUHU216HW,2013-04-18 12:45:00,
2013-04-18 08:50:00,53.2,50.9,29.69,ENE,68,0.0,3.1,92,0.00,,,0.00,WUHU216HW,2013-04-18 12:50:00,
2013-04-18 08:55:00,53.2,50.9,29.68,NE,45,0.0,2.9,92,0.00,,,0.00,WUHU216HW,2013-04-18 12:55:00,
2013-04-18 09:00:00,53.4,51.1,29.69,NE,45,0.0,0.0,92,0.00,,,0.00,WUHU216HW,2013-04-18 13:00:00,
2013-04-18 09:05:00,53.4,51.1,29.68,ENE,68,0.0,0.6,92,0.00,,,0.00,WUHU216HW,2013-04-18 13:05:00,
2013-04-18 09:10:00,53.7,51.4,29.67,ENE,68,0.0,0.6,92,0.00,,,0.00,WUHU216HW,2013-04-18 13:10:00,
2013-04-18 09:15:00,53.9,51.6,29.68,NE,45,0.0,0.8,92,0.00,,,0.00,WUHU216HW,2013-04-18 13:15:00,
2013-04-18 09:20:00,54.1,51.8,29.67,ENE,68,0.0,0.8,92,0.00,,,0.00,WUHU216HW,2013-04-18 13:20:00,
2013-04-18 09:25:00,54.3,52.0,29.65,ENE,68,0.0,0.0,92,0.00,,,0.00,WUHU216HW,2013-04-18 13:25:00,
2013-04-18 09:30:00,54.6,52.3,29.65,ENE,68,0.0,0.0,92,0.00,,,0.00,WUHU216HW,2013-04-18 13:30:00,
2013-04-18 09:35:00,55.0,52.7,29.66,ENE,68,0.0,0.0,92,0.00,,,0.00,WUHU216HW,2013-04-18 13:35:00,
2013-04-18 09:41:00,55.4,52.9,29.65,ESE,113,2.2,2.2,92,0.00,,,0.00,WUHU216HW,2013-04-18 13:41:00,
2013-04-18 09:46:00,55.7,53.4,29.65,ESE,113,0.8,3.3,92,0.00,,,0.00,WUHU216HW,2013-04-18 13:46:00,
2013-04-18 09:51:00,56.3,53.9,29.65,ESE,113,2.9,3.3,92,0.00,,,0.00,WUHU216HW,2013-04-18 13:51:00,
2013-04-18 09:56:00,57.3,54.7,29.65,SE,135,0.0,4.0,92,0.00,,,0.00,WUHU216HW,2013-04-18 13:56:00,
2013-04-18 10:01:00,57.9,55.6,29.65,ESE,113,3.1,4.0,92,0.00,,,0.00,WUHU216HW,2013-04-18 14:01:00,
2013-04-18 10:06:00,59.5,57.2,29.64,SSE,158,6.0,6.0,92,0.00,,,0.00,WUHU216HW,2013-04-18 14:06:00,
2013-04-18 10:11:00,61.1,59.1,29.64,SSW,203,5.5,6.0,93,0.00,,,0.00,WUHU216HW,2013-04-18 14:11:00,
2013-04-18 10:16:00,62.9,60.9,29.63,South,180,8.2,8.2,93,0.00,,,0.00,WUHU216HW,2013-04-18 14:16:00,
2013-04-18 10:22:00,64.2,62.2,29.63,SSE,158,6.4,8.2,93,0.00,,,0.00,WUHU216HW,2013-04-18 14:22:00,
2013-04-18 10:27:00,65.8,63.7,29.62,SW,225,8.2,14.9,93,0.00,,,0.00,WUHU216HW,2013-04-18 14:27:00,
2013-04-18 10:32:00,66.9,63.8,29.61,South,180,14.7,14.7,90,0.00,,,0.00,WUHU216HW,2013-04-18 14:32:00,
2013-04-18 10:37:00,67.6,63.9,29.61,South,180,10.2,14.7,88,0.00,,,0.00,WUHU216HW,2013-04-18 14:37:00,
2013-04-18 10:42:00,67.8,63.4,29.61,SSW,203,4.4,14.7,86,0.00,,,0.00,WUHU216HW,2013-04-18 14:42:00,
2013-04-18 10:47:00,68.1,63.4,29.60,South,180,10.5,10.5,85,0.00,,,0.00,WUHU216HW,2013-04-18 14:47:00,
2013-04-18 10:52:00,68.3,63.6,29.65,SW,225,10.5,10.5,85,0.00,,,0.00,WUHU216HW,2013-04-18 14:52:00,
2013-04-18 10:57:00,67.2,61.9,29.65,SSW,203,16.1,19.6,83,0.00,,,0.00,WUHU216HW,2013-04-18 14:57:00,
2013-04-18 11:02:00,64.2,59.6,29.65,South,180,14.0,19.6,85,0.00,,,0.00,WUHU216HW,2013-04-18 15:02:00,
2013-04-18 11:08:00,63.1,58.8,29.65,WSW,248,6.7,17.0,86,0.00,,,0.00,WUHU216HW,2013-04-18 15:08:00,
2013-04-18 11:13:00,62.7,58.8,29.65,SW,225,2.4,14.0,87,0.00,,,0.00,WUHU216HW,2013-04-18 15:13:00,
2013-04-18 11:18:00,62.2,58.6,29.65,SSW,203,8.5,11.8,88,0.00,,,0.00,WUHU216HW,2013-04-18 15:18:00,
2013-04-18 11:23:00,61.8,58.3,29.66,WNW,293,2.4,11.8,88,0.00,,,0.00,WUHU216HW,2013-04-18 15:23:00,
2013-04-18 11:28:00,61.5,57.9,29.66,West,270,4.0,8.5,88,0.00,,,0.00,WUHU216HW,2013-04-18 15:28:00,
2013-04-18 11:33:00,60.9,57.4,29.66,SSW,203,7.3,7.3,88,0.00,,,0.00,WUHU216HW,2013-04-18 15:33:00,
2013-04-18 11:38:00,60.6,57.0,29.67,SW,225,4.9,7.3,88,0.00,,,0.00,WUHU216HW,2013-04-18 15:38:00,
2013-04-18 11:43:00,60.4,57.2,29.69,SW,225,0.0,8.9,89,0.00,,,0.00,WUHU216HW,2013-04-18 15:43:00,
2013-04-18 11:48:00,60.0,57.2,29.69,SSW,203,14.0,15.4,90,0.00,,,0.00,WUHU216HW,2013-04-18 15:48:00,
2013-04-18 11:53:00,59.9,57.0,29.69,SSW,203,8.7,15.4,90,0.00,,,0.00,WUHU216HW,2013-04-18 15:53:00,
2013-04-18 11:58:00,59.9,57.3,29.69,SSW,203,7.3,14.5,91,0.00,,,0.00,WUHU216HW,2013-04-18 15:58:00,
2013-04-18 12:03:00,59.7,57.1,29.68,SSW,203,10.2,10.5,91,0.00,,,0.00,WUHU216HW,2013-04-18 16:03:00,
2013-04-18 12:09:00,60.0,57.4,29.68,SSE,158,10.0,11.1,91,0.00,,,0.00,WUHU216HW,2013-04-18 16:09:00,
2013-04-18 12:14:00,60.4,57.8,29.68,SW,225,7.6,11.1,91,0.00,,,0.00,WUHU216HW,2013-04-18 16:14:00,
2013-04-18 12:19:00,60.9,58.3,29.70,SSW,203,5.1,13.6,91,0.00,,,0.00,WUHU216HW,2013-04-18 16:19:00,
2013-04-18 12:24:00,61.3,58.5,29.70,SW,225,11.6,13.6,91,0.00,,,0.00,WUHU216HW,2013-04-18 16:24:00,
2013-04-18 12:29:00,61.5,58.9,29.71,SSW,203,9.1,13.4,91,0.00,,,0.00,WUHU216HW,2013-04-18 16:29:00,
2013-04-18 12:34:00,61.3,58.4,29.71,SSW,203,11.8,11.8,90,0.00,,,0.00,WUHU216HW,2013-04-18 16:34:00,
2013-04-18 12:39:00,61.3,58.4,29.71,SSW,203,11.8,11.8,90,0.00,,,0.00,WUHU216HW,2013-04-18 16:39:00,
2013-04-18 12:49:00,60.9,58.1,29.69,South,180,6.2,6.2,90,0.00,,,0.00,WUHU216HW,2013-04-18 16:49:00,
2013-04-18 12:54:00,61.1,58.5,29.71,South,180,11.8,11.8,91,0.00,,,0.00,WUHU216HW,2013-04-18 16:54:00,
2013-04-18 12:59:00,61.5,58.9,29.71,South,180,13.4,13.4,91,0.00,,,0.00,WUHU216HW,2013-04-18 16:59:00,
2013-04-18 13:04:00,61.7,59.1,29.70,South,180,7.3,13.4,91,0.00,,,0.00,WUHU216HW,2013-04-18 17:04:00,
2013-04-18 13:09:00,62.2,59.6,29.70,SSW,203,12.9,12.9,91,0.00,,,0.00,WUHU216HW,2013-04-18 17:09:00,
2013-04-18 13:14:00,62.4,59.8,29.71,South,180,12.0,12.9,91,0.00,,,0.00,WUHU216HW,2013-04-18 17:14:00,
2013-04-18 13:19:00,62.4,59.5,29.71,South,180,4.0,12.9,91,0.00,,,0.00,WUHU216HW,2013-04-18 17:19:00,
2013-04-18 13:24:00,62.4,59.5,29.72,SSW,203,10.5,10.5,90,0.00,,,0.00,WUHU216HW,2013-04-18 17:24:00,
2013-04-18 13:29:00,62.6,59.3,29.71,SSW,203,9.8,10.5,89,0.00,,,0.00,WUHU216HW,2013-04-18 17:29:00,
2013-04-18 13:34:00,62.6,59.3,29.71,South,180,3.1,10.5,89,0.00,,,0.00,WUHU216HW,2013-04-18 17:34:00,
2013-04-18 13:39:00,62.7,59.5,29.70,SSW,203,8.2,11.6,89,0.00,,,0.00,WUHU216HW,2013-04-18 17:39:00,
2013-04-18 13:44:00,62.6,59.3,29.69,SSE,158,7.1,11.6,89,0.00,,,0.00,WUHU216HW,2013-04-18 17:44:00,
2013-04-18 13:49:00,62.6,59.3,29.68,SSW,203,10.5,10.5,89,0.00,,,0.00,WUHU216HW,2013-04-18 17:49:00,
2013-04-18 13:54:00,62.7,59.5,29.69,South,180,9.6,10.5,89,0.00,,,0.00,WUHU216HW,2013-04-18 17:54:00,
2013-04-18 13:59:00,62.7,59.5,29.71,SSW,203,8.0,10.5,89,0.00,,,0.00,WUHU216HW,2013-04-18 17:59:00,
2013-04-18 14:05:00,62.9,59.7,29.71,South,180,7.3,14.9,89,0.00,,,0.00,WUHU216HW,2013-04-18 18:05:00,
2013-04-18 14:10:00,62.9,59.7,29.71,South,180,9.8,14.9,89,0.00,,,0.00,WUHU216HW,2013-04-18 18:10:00,
2013-04-18 14:15:00,62.7,59.5,29.71,SSW,203,14.3,14.3,89,0.00,,,0.00,WUHU216HW,2013-04-18 18:15:00,
2013-04-18 14:20:00,62.9,59.7,29.70,South,180,4.9,14.3,89,0.00,,,0.00,WUHU216HW,2013-04-18 18:20:00,
2013-04-18 14:25:00,62.7,59.5,29.72,SW,225,6.7,14.3,89,0.00,,,0.00,WUHU216HW,2013-04-18 18:25:00,
2013-04-18 14:30:00,62.6,59.3,29.73,SSW,203,0.0,9.1,89,0.00,,,0.00,WUHU216HW,2013-04-18 18:30:00,
2013-04-18 14:35:00,62.4,59.1,29.72,SSW,203,10.5,10.5,89,0.00,,,0.00,WUHU216HW,2013-04-18 18:35:00,
2013-04-18 14:40:00,62.4,59.1,29.72,SSW,203,12.3,15.8,89,0.00,,,0.00,WUHU216HW,2013-04-18 18:40:00,
2013-04-18 14:45:00,62.4,59.1,29.71,SSW,203,7.6,15.8,89,0.00,,,0.00,WUHU216HW,2013-04-18 18:45:00,
2013-04-18 14:50:00,62.4,59.1,29.71,SW,225,3.1,10.7,89,0.00,,,0.00,WUHU216HW,2013-04-18 18:50:00,
2013-04-18 14:55:00,62.4,59.1,29.72,SW,225,5.1,10.0,89,0.00,,,0.00,WUHU216HW,2013-04-18 18:55:00,
2013-04-18 15:00:00,62.4,59.1,29.72,SW,225,5.1,5.1,89,0.00,,,0.00,WUHU216HW,2013-04-18 19:00:00,
2013-04-18 15:05:00,62.4,59.1,29.72,SW,225,5.1,5.1,89,0.00,,,0.00,WUHU216HW,2013-04-18 19:05:00,
2013-04-18 15:10:00,62.4,59.1,29.72,SW,225,5.1,5.1,89,0.00,,,0.00,WUHU216HW,2013-04-18 19:10:00,
2013-04-18 15:15:00,62.4,59.1,29.73,SW,225,5.1,5.1,89,0.00,,,0.00,WUHU216HW,2013-04-18 19:15:00,
2013-04-18 15:36:00,0.0,0.0,29.74,SSW,203,8.9,8.9,89,0.00,,,0.00,WUHU216HW,2013-04-18 19:36:00,
2013-04-18 15:41:00,0.0,-2.5,29.72,SSW,203,10.9,10.9,89,0.00,,,0.00,WUHU216HW,2013-04-18 19:41:00,
2013-04-18 15:46:00,0.0,-2.5,29.72,SSW,203,10.9,10.9,89,0.00,,,0.00,WUHU216HW,2013-04-18 19:46:00,
2013-04-18 15:51:00,63.3,60.0,29.71,SSW,203,12.0,12.0,89,0.00,,,0.00,WUHU216HW,2013-04-18 19:51:00,
2013-04-18 15:56:00,63.3,59.7,29.71,SW,225,7.6,13.4,88,0.00,,,0.00,WUHU216HW,2013-04-18 19:56:00,
2013-04-18 16:01:00,63.5,59.9,29.71,South,180,11.6,13.4,88,0.00,,,0.00,WUHU216HW,2013-04-18 20:01:00,
2013-04-18 16:06:00,63.3,59.7,29.71,SSE,158,9.3,11.6,88,0.00,,,0.00,WUHU216HW,2013-04-18 20:06:00,
2013-04-18 16:11:00,63.3,59.7,29.70,South,180,8.5,9.3,88,0.00,,,0.00,WUHU216HW,2013-04-18 20:11:00,
2013-04-18 16:16:00,63.3,59.7,29.70,South,180,11.6,11.6,88,0.00,,,0.00,WUHU216HW,2013-04-18 20:16:00,
2013-04-18 16:21:00,63.1,59.5,29.69,SSW,203,10.0,11.6,88,0.00,,,0.00,WUHU216HW,2013-04-18 20:21:00,
2013-04-18 16:26:00,62.9,59.3,29.68,SSE,158,8.9,14.0,88,0.00,,,0.00,WUHU216HW,2013-04-18 20:26:00,
2013-04-18 16:32:00,62.9,59.3,29.69,SSW,203,16.5,16.5,88,0.00,,,0.00,WUHU216HW,2013-04-18 20:32:00,
2013-04-18 16:38:00,62.9,59.3,29.69,SSE,158,9.6,16.5,88,0.00,,,0.00,WUHU216HW,2013-04-18 20:38:00,
2013-04-18 16:43:00,62.7,59.5,29.68,SSW,203,8.2,16.5,89,0.00,,,0.00,WUHU216HW,2013-04-18 20:43:00,
2013-04-18 16:48:00,62.7,59.5,29.68,SSW,203,7.8,10.5,89,0.00,,,0.00,WUHU216HW,2013-04-18 20:48:00,
2013-04-18 16:53:00,62.7,59.5,29.69,SSW,203,15.2,15.2,89,0.00,,,0.00,WUHU216HW,2013-04-18 20:53:00,
2013-04-18 16:58:00,62.7,59.5,29.70,SSW,203,11.4,15.2,89,0.00,,,0.00,WUHU216HW,2013-04-18 20:58:00,
2013-04-18 17:03:00,62.7,59.5,29.71,SSW,203,11.4,15.2,89,0.00,,,0.00,WUHU216HW,2013-04-18 21:03:00,
2013-04-18 17:08:00,62.7,59.5,29.71,SSW,203,11.4,11.4,89,0.00,,,0.00,WUHU216HW,2013-04-18 21:08:00,
2013-04-18 17:13:00,62.9,59.7,29.71,SSW,203,21.0,21.0,89,0.00,,,0.00,WUHU216HW,2013-04-18 21:13:00,
2013-04-18 17:18:00,62.7,59.5,29.71,SSW,203,12.9,21.0,89,0.00,,,0.00,WUHU216HW,2013-04-18 21:18:00,
2013-04-18 17:23:00,62.7,59.5,29.70,South,180,8.9,21.0,89,0.00,,,0.00,WUHU216HW,2013-04-18 21:23:00,
2013-04-18 17:28:00,62.7,59.5,29.69,SSE,158,8.5,12.9,89,0.00,,,0.00,WUHU216HW,2013-04-18 21:28:00,
2013-04-18 17:34:00,62.6,59.3,29.69,SE,135,5.1,8.9,89,0.00,,,0.00,WUHU216HW,2013-04-18 21:34:00,
2013-04-18 17:39:00,62.4,59.1,29.68,South,180,4.6,8.5,89,0.00,,,0.00,WUHU216HW,2013-04-18 21:39:00,
2013-04-18 17:44:00,62.4,59.1,29.69,SE,135,6.7,6.7,89,0.00,,,0.00,WUHU216HW,2013-04-18 21:44:00,
2013-04-18 17:49:00,62.4,59.1,29.69,South,180,6.9,6.9,89,0.00,,,0.00,WUHU216HW,2013-04-18 21:49:00,
2013-04-18 17:54:00,62.4,59.1,29.68,South,180,6.9,6.9,89,0.00,,,0.00,WUHU216HW,2013-04-18 21:54:00,
2013-04-18 17:59:00,62.4,59.1,29.67,SE,135,2.0,6.9,89,0.00,,,0.00,WUHU216HW,2013-04-18 21:59:00,
2013-04-18 18:04:00,62.4,59.1,29.65,SE,135,2.0,6.9,89,0.00,,,0.00,WUHU216HW,2013-04-18 22:04:00,
2013-04-18 18:09:00,61.7,58.4,29.65,South,180,10.2,10.2,89,0.00,,,0.00,WUHU216HW,2013-04-18 22:09:00,
2013-04-18 18:14:00,61.7,58.8,29.65,SSE,158,6.0,10.2,90,0.00,,,0.00,WUHU216HW,2013-04-18 22:14:00,
2013-04-18 18:19:00,61.7,58.8,29.65,SE,135,2.2,10.2,90,0.00,,,0.00,WUHU216HW,2013-04-18 22:19:00,
2013-04-18 18:25:00,61.5,58.6,29.65,South,180,3.3,8.9,90,0.00,,,0.00,WUHU216HW,2013-04-18 22:25:00,
2013-04-18 18:30:00,61.5,58.6,29.67,South,180,10.2,11.6,90,0.00,,,0.00,WUHU216HW,2013-04-18 22:30:00,
2013-04-18 18:36:00,61.5,58.6,29.67,South,180,6.4,11.6,90,0.00,,,0.00,WUHU216HW,2013-04-18 22:36:00,
2013-04-18 19:21:00,61.1,57.9,29.67,SSE,158,4.4,4.4,89,0.00,,,0.00,WUHU216HW,2013-04-18 23:21:00,
2013-04-18 19:26:00,60.9,57.7,29.66,ESE,113,2.4,9.6,89,0.00,,,0.00,WUHU216HW,2013-04-18 23:26:00,
2013-04-18 19:31:00,60.9,57.7,29.65,East,90,8.9,9.6,89,0.00,,,0.00,WUHU216HW,2013-04-18 23:31:00,
2013-04-18 19:36:00,60.9,57.7,29.62,SE,135,12.9,12.9,89,0.00,,,0.00,WUHU216HW,2013-04-18 23:36:00,
2013-04-18 19:41:00,60.8,57.2,29.58,SE,135,5.5,12.9,88,0.00,,,0.00,WUHU216HW,2013-04-18 23:41:00,
2013-04-18 19:46:00,60.6,57.0,29.58,ESE,113,7.6,12.9,88,0.00,,,0.00,WUHU216HW,2013-04-18 23:46:00,
2013-04-18 19:51:00,60.8,57.2,29.57,ESE,113,4.6,10.5,88,0.00,,,0.00,WUHU216HW,2013-04-18 23:51:00,
2013-04-18 19:56:00,60.9,57.1,29.57,SE,135,3.5,12.9,87,0.00,,,0.00,WUHU216HW,2013-04-18 23:56:00,
2013-04-18 20:01:00,61.1,56.9,29.58,SSE,158,7.3,12.9,86,0.00,,,0.00,WUHU216HW,2013-04-19 00:01:00,
2013-04-18 20:06:00,61.3,57.1,29.60,South,180,11.4,12.9,86,0.00,,,0.00,WUHU216HW,2013-04-19 00:06:00,
2013-04-18 20:11:00,61.5,56.9,29.56,SE,135,10.5,12.9,85,0.00,,,0.00,WUHU216HW,2013-04-19 00:11:00,
2013-04-18 20:16:00,61.5,56.9,29.53,SSE,158,13.6,13.6,85,0.00,,,0.00,WUHU216HW,2013-04-19 00:16:00,
2013-04-18 20:21:00,61.3,56.8,29.56,SSE,158,10.2,13.6,85,0.00,,,0.00,WUHU216HW,2013-04-19 00:21:00,
2013-04-18 20:27:00,61.3,56.8,29.57,South,180,14.3,20.3,85,0.00,,,0.00,WUHU216HW,2013-04-19 00:27:00,
2013-04-18 20:32:00,61.5,56.9,29.58,SE,135,11.4,20.3,85,0.00,,,0.00,WUHU216HW,2013-04-19 00:32:00,
2013-04-18 20:37:00,61.5,56.9,29.57,SSE,158,9.3,17.2,85,0.00,,,0.00,WUHU216HW,2013-04-19 00:37:00,
2013-04-18 20:42:00,61.3,56.8,29.59,SSE,158,10.9,11.4,85,0.00,,,0.00,WUHU216HW,2013-04-19 00:42:00,
2013-04-18 20:47:00,61.3,57.1,29.60,South,180,7.3,11.1,86,0.00,,,0.00,WUHU216HW,2013-04-19 00:47:00,
2013-04-18 20:52:00,61.3,57.1,29.60,SSE,158,9.8,11.1,86,0.00,,,0.00,WUHU216HW,2013-04-19 00:52:00,
2013-04-18 20:57:00,61.3,57.1,29.60,SSE,158,4.6,15.4,86,0.00,,,0.00,WUHU216HW,2013-04-19 00:57:00,
2013-04-18 21:02:00,61.1,56.9,29.60,SSE,158,6.7,15.4,86,0.00,,,0.00,WUHU216HW,2013-04-19 01:02:00,
2013-04-18 21:07:00,61.1,56.9,29.60,SSE,158,4.6,13.4,86,0.00,,,0.00,WUHU216HW,2013-04-19 01:07:00,
2013-04-18 21:13:00,61.1,56.9,29.59,SSE,158,8.5,13.4,86,0.00,,,0.00,WUHU216HW,2013-04-19 01:13:00,
2013-04-18 21:18:00,60.9,56.7,29.58,SE,135,0.0,8.5,86,0.00,,,0.00,WUHU216HW,2013-04-19 01:18:00,
2013-04-18 21:23:00,60.9,57.1,29.58,SSE,158,14.7,14.7,87,0.00,,,0.00,WUHU216HW,2013-04-19 01:23:00,
2013-04-18 21:28:00,60.6,57.0,29.58,SW,225,18.3,18.3,88,0.00,,,0.00,WUHU216HW,2013-04-19 01:28:00,
2013-04-18 21:33:00,60.6,57.0,29.59,SSE,158,5.3,18.3,88,0.00,,,0.00,WUHU216HW,2013-04-19 01:33:00,
2013-04-18 21:38:00,60.6,57.0,29.59,ESE,113,16.5,18.3,88,0.00,,,0.00,WUHU216HW,2013-04-19 01:38:00,
2013-04-18 21:43:00,60.6,57.4,29.58,SSE,158,6.9,16.5,89,0.00,,,0.00,WUHU216HW,2013-04-19 01:43:00,
2013-04-18 21:48:00,60.6,57.4,29.59,South,180,10.7,10.7,89,0.00,,,0.00,WUHU216HW,2013-04-19 01:48:00,
2013-04-18 21:53:00,60.6,57.0,29.58,South,180,6.2,10.7,88,0.00,,,0.00,WUHU216HW,2013-04-19 01:53:00,
2013-04-18 21:58:00,60.6,57.0,29.59,SSW,203,6.7,7.6,88,0.00,,,0.00,WUHU216HW,2013-04-19 01:58:00,
2013-04-18 22:03:00,60.6,57.0,29.60,SSW,203,8.0,8.0,88,0.00,,,0.00,WUHU216HW,2013-04-19 02:03:00,
2013-04-18 22:09:00,60.6,57.0,29.60,SSW,203,15.4,15.4,88,0.00,,,0.00,WUHU216HW,2013-04-19 02:09:00,
2013-04-18 22:14:00,60.6,57.0,29.58,ESE,113,19.9,19.9,88,0.00,,,0.00,WUHU216HW,2013-04-19 02:14:00,
2013-04-18 22:19:00,60.6,57.0,29.59,SSW,203,9.1,19.9,88,0.00,,,0.00,WUHU216HW,2013-04-19 02:19:00,
2013-04-18 22:24:00,60.4,57.2,29.60,SSW,203,17.2,17.2,89,0.00,,,0.00,WUHU216HW,2013-04-19 02:24:00,
2013-04-18 22:29:00,60.4,57.2,29.60,SSW,203,17.2,17.2,89,0.00,,,0.00,WUHU216HW,2013-04-19 02:29:00,
2013-04-18 22:34:00,60.2,56.7,29.62,SSW,203,8.2,17.2,88,0.00,,,0.00,WUHU216HW,2013-04-19 02:34:00,
2013-04-18 22:39:00,58.8,54.3,29.61,SW,225,10.9,17.2,85,0.00,,,0.00,WUHU216HW,2013-04-19 02:39:00,
2013-04-18 22:44:00,57.7,53.8,29.59,South,180,11.6,14.0,87,0.00,,,0.00,WUHU216HW,2013-04-19 02:44:00,
2013-04-18 22:49:00,57.5,54.1,29.59,SSW,203,4.9,11.6,89,0.00,,,0.00,WUHU216HW,2013-04-19 02:49:00,
2013-04-18 22:54:00,57.3,54.1,29.59,SSW,203,4.2,8.0,89,0.00,,,0.00,WUHU216HW,2013-04-19 02:54:00,
2013-04-18 23:00:00,57.3,54.1,29.61,SW,225,10.5,10.5,89,0.00,,,0.00,WUHU216HW,2013-04-19 03:00:00,
2013-04-18 23:05:00,55.4,51.2,29.61,SW,225,8.0,13.4,86,0.00,,,0.00,WUHU216HW,2013-04-19 03:05:00,
2013-04-18 23:10:00,54.3,50.4,29.61,SW,225,9.1,18.1,87,0.00,,,0.00,WUHU216HW,2013-04-19 03:10:00,
2013-04-18 23:15:00,53.4,50.2,29.61,SW,225,17.0,18.1,89,0.00,,,0.00,WUHU216HW,2013-04-19 03:15:00,
2013-04-18 23:20:00,52.8,49.6,29.60,SSW,203,11.4,17.0,89,0.04,,,0.02,WUHU216HW,2013-04-19 03:20:00,
2013-04-18 23:25:00,52.7,49.8,29.61,SW,225,9.1,17.0,90,0.04,,,0.04,WUHU216HW,2013-04-19 03:25:00,
2013-04-18 23:30:00,51.6,48.4,29.60,SSW,203,10.9,16.3,89,0.06,,,0.06,WUHU216HW,2013-04-19 03:30:00,
2013-04-18 23:35:00,50.9,47.7,29.58,SSW,203,8.2,16.3,89,0.06,,,0.06,WUHU216HW,2013-04-19 03:35:00,
2013-04-18 23:40:00,50.5,47.6,29.63,WSW,248,12.9,12.9,90,0.06,,,0.06,WUHU216HW,2013-04-19 03:40:00,
2013-04-18 23:46:00,49.6,46.4,29.63,WSW,248,19.2,19.2,89,0.06,,,0.06,WUHU216HW,2013-04-19 03:46:00,
2013-04-18 23:51:00,49.6,46.4,29.63,WSW,248,19.2,19.2,89,0.06,,,0.06,WUHU216HW,2013-04-19 03:51:00,
2013-04-18 23:56:00,49.6,46.4,29.63,WSW,248,19.2,19.2,89,0.06,,,0.06,WUHU216HW,2013-04-19 03:56:00,